[[{"header":{"parameterUnit":"m.s-1","parameterCategory":1,"la1":30.2991,"la2":30.254,"lo1":-89.0895,"lo2":-89.0444,"dy":0.0017,"dx":0.0017,"nx":28,"ny":28,"refTime":"2025-11-07T09:00:00:Z","depth":0,"parameterNumber":2,"parameterNumberName":"U-component_of_WINDS"},"data":[0,0,0,0,0,0,0,0,0,0,0,0,0,0,0,0,0,0,0,0,0,0,0,0,0,0,0,0,0,0,0,0,0,0,0,0,0,0,0,0,0,0,0,0,0,0,0,0,0,0,0,0,0,0,0,0,0,0,-1.9071,-1.9071,0,-1.9112,-1.9112,-1.9113,-1.9129,-1.9128,-1.9128,-1.9128,-1.9169,-1.917,-1.9171,0,0,0,0,0,0,0,0,0,0,0,0,0,-1.9005,-1.9007,-1.9071,-1.9071,-1.9072,-1.9112,-1.9112,-1.9113,-1.9129,-1.9128,-1.9128,-1.9128,-1.9168,-1.917,-1.9171,0,0,0,0,0,0,0,0,0,0,0,0,0,-1.9039,-1.9007,-1.9071,-1.9085,-1.9086,-1.9112,-1.9112,-1.9113,-1.9129,-1.9128,-1.9128,-1.9128,-1.9168,-1.9169,-1.9171,-1.9185,0,0,-1.9176,-1.9177,0,0,0,0,0,0,0,0,-1.9037,-1.9041,-1.9082,-1.9084,-1.9086,-1.9115,-1.9104,-1.9137,-1.9129,-1.9112,-1.9128,-1.9128,-1.9151,-1.9154,-1.9162,-1.9187,-1.9189,-1.9177,-1.9178,-1.9178,-1.9179,0,0,0,0,0,0,0,-1.9035,-1.9039,-1.9087,-1.9083,-1.9085,-1.9088,-1.9093,-1.911,-1.9132,-1.9114,-1.9115,-1.912,-1.9152,-1.916,-1.9163,-1.9189,-1.9177,-1.9178,-1.9179,-1.918,-1.9229,-1.9229,0,0,0,0,0,0,-1.903,-1.9037,-1.9086,-1.9088,-1.906,-1.909,-1.9095,-1.9106,-1.9132,-1.9136,-1.912,-1.912,-1.9157,-1.9161,-1.9164,-1.9183,-1.9178,-1.918,-1.9181,-1.9228,-1.9229,-1.9229,0,0,0,0,0,0,-1.9029,-1.9034,-1.9084,-1.9063,-1.907,-1.9091,-1.9103,-1.9107,-1.9115,-1.9136,-1.914,-1.9125,-1.9157,-1.9162,-1.918,-1.9184,-1.9181,-1.9182,-1.9228,-1.9229,-1.9229,-1.922,0,0,0,0,0,0,-1.9027,-1.9034,-1.9039,-1.9063,-1.9071,-1.9099,-1.9103,-1.9107,-1.9118,-1.9119,-1.9142,-1.9145,-1.9157,-1.9177,-1.9182,-1.9187,-1.9184,-1.9228,-1.9228,-1.9229,-1.922,-1.922,-1.922,0,0,0,0,0,-1.9024,-1.9035,-1.904,-1.9045,-1.9079,-1.91,-1.9104,-1.9118,-1.9118,-1.9124,-1.9138,-1.9145,-1.9183,-1.9179,-1.9184,-1.919,-1.9228,-1.9228,-1.9229,-1.922,-1.922,-1.922,0,0,0,0,0,0,-1.901,-1.9038,-1.9044,-1.9062,-1.9079,-1.9102,-1.911,-1.9117,-1.9133,-1.9134,-1.915,-1.9155,-1.9172,-1.9183,-1.9178,-1.9205,-1.9206,-1.9208,-1.9197,-1.9197,-1.9197,-1.9194,-1.9185,0,0,0,0,0,-1.901,-1.9025,-1.9048,-1.9062,-1.907,-1.9089,-1.9098,-1.9108,-1.9125,-1.9132,-1.9147,-1.9163,-1.9179,-1.9189,-1.9204,-1.9221,-1.9227,-1.9228,-1.9228,-1.9228,-1.9229,-1.9239,-1.9239,-1.9231,-1.9231,-1.9231,0,0,-1.9008,-1.9025,-1.9033,-1.906,-1.9073,-1.9088,-1.9094,-1.911,-1.9121,-1.9134,-1.9152,-1.9164,-1.9183,-1.9201,-1.9209,-1.921,-1.9232,-1.9228,-1.9228,-1.9229,-1.9239,-1.924,-1.9241,-1.9231,-1.9231,-1.9231,0,0,-1.9012,-1.9027,-1.904,-1.9054,-1.9075,-1.9087,-1.909,-1.9113,-1.9122,-1.914,-1.9151,-1.9164,-1.9191,-1.9204,-1.9214,-1.9224,-1.9231,-1.9229,-1.9229,-1.9238,-1.9239,-1.924,-1.9243,-1.9244,-1.923,-1.923,-1.923,0,-1.9007,-1.9031,-1.9046,-1.9061,-1.9072,-1.9086,-1.9099,-1.9112,-1.9136,-1.9144,-1.9145,-1.9179,-1.9193,-1.9214,-1.9216,-1.9224,-1.9228,-1.9226,-1.9238,-1.9238,-1.9239,-1.9243,-1.9244,-1.923,-1.923,-1.923,-1.923,0,-1.9023,-1.9039,-1.9048,-1.9072,-1.9084,-1.9098,-1.9116,-1.9126,-1.9135,-1.9147,-1.9166,-1.9183,-1.9203,-1.9208,-1.9217,-1.9231,-1.9231,-1.9235,-1.9236,-1.9239,-1.9243,-1.9245,-1.9229,-1.9229,-1.9229,-1.9229,0,0,-1.902,-1.9053,-1.9055,-1.9066,-1.9091,-1.9103,-1.9118,-1.9138,-1.9146,-1.9163,-1.9176,-1.9199,-1.9202,-1.9214,-1.9224,-1.9232,-1.9239,-1.9235,-1.9236,-1.9235,-1.9256,-1.9253,-1.9254,-1.9244,-1.9244,-1.9245,-1.9254,0,-1.9027,-1.9055,-1.9069,-1.909,-1.9105,-1.9118,-1.9131,-1.9147,-1.9159,-1.9174,-1.9187,-1.9203,-1.9206,-1.9214,-1.9223,-1.9236,-1.9244,-1.9236,-1.9256,-1.9256,-1.925,-1.9256,-1.9253,-1.9261,-1.9256,-1.9256,-1.9256,0,-1.904,-1.9057,-1.9079,-1.9102,-1.9109,-1.912,-1.914,-1.9153,-1.9172,-1.918,-1.9193,-1.9203,-1.9219,-1.922,-1.9242,-1.9236,-1.9245,-1.9254,-1.9254,-1.9256,-1.9256,-1.9258,-1.9264,-1.9265,-1.9259,-1.9259,-1.9258,0,-1.9034,-1.9063,-1.9081,-1.909,-1.9117,-1.9124,-1.9136,-1.9154,-1.9165,-1.9182,-1.9189,-1.9208,-1.9218,-1.9232,-1.9246,-1.9245,-1.9267,-1.9269,-1.9274,-1.9274,-1.9278,-1.9277,-1.9285,-1.9284,-1.9284,-1.9284,-1.9284,0,-1.9041,-1.9055,-1.9079,-1.9089,-1.9105,-1.9121,-1.9136,-1.9148,-1.9165,-1.9178,-1.919,-1.9202,-1.9221,-1.9236,-1.9247,-1.9264,-1.9268,-1.9275,-1.9278,-1.9274,-1.9273,-1.928,-1.9279,-1.9284,-1.9284,-1.9284,-1.9284,0,-1.9038,-1.9055,-1.9074,-1.9098,-1.9105,-1.9115,-1.9136,-1.9146,-1.9159,-1.9176,-1.9181,-1.9201,-1.9218,-1.9235,-1.9258,-1.9266,-1.9282,-1.9286,-1.9276,-1.9278,-1.9282,-1.9281,-1.9294,-1.9297,-1.9294,-1.9294,-1.9294,0,-1.9041,-1.9052,-1.9077,-1.9087,-1.9098,-1.9114,-1.9126,-1.9142,-1.9154,-1.9176,-1.9184,-1.9203,-1.9218,-1.9246,-1.9262,-1.928,-1.9285,-1.9288,-1.9287,-1.9283,-1.9285,-1.9284,-1.9285,-1.9288,-1.9287,-1.9287,-1.9287,0,-1.9045,-1.9052,-1.9069,-1.9088,-1.9101,-1.9117,-1.9133,-1.914,-1.916,-1.9172,-1.9191,-1.9203,-1.9227,-1.9246,-1.9266,-1.9277,-1.9286,-1.9288,-1.929,-1.9285,-1.9279,-1.9283,-1.9275,-1.9287,-1.9287,-1.9287,-1.9287,-1.9287,-1.9045,-1.9055,-1.9074,-1.9092,-1.9106,-1.9121,-1.9132,-1.9147,-1.9162,-1.9184,-1.9193,-1.9211,-1.923,-1.9258,-1.9269,-1.9284,-1.9286,-1.9289,-1.929,-1.929,-1.9289,-1.9277,-1.9288,-1.9288,-1.9288,-1.9288,-1.9288,0,-1.9049,-1.9062,-1.9078,-1.9101,-1.9114,-1.9122,-1.914,-1.9151,-1.9167,-1.9184,-1.92,-1.9221,-1.9239,-1.9257,-1.9276,-1.9284,-1.9289,-1.9289,-1.9288,-1.9291,-1.9287,-1.9283,-1.9285,-1.9285,-1.9285,-1.9285,-1.9285,-1.9285,-1.9053,-1.907,-1.908,-1.9105,-1.9118,-1.9137,-1.9147,-1.916,-1.9174,-1.9197,-1.9212,-1.9224,-1.9242,-1.9262,-1.9279,-1.9284,-1.929,-1.9289,-1.9295,-1.9291,-1.9291,-1.9291,-1.9287,-1.929,-1.929,-1.9298,-1.9298,-1.9298]},{"header":{"parameterUnit":"m.s-1","parameterCategory":1,"la1":30.2991,"la2":30.254,"lo1":-89.0895,"lo2":-89.0444,"dy":0.0017,"dx":0.0017,"nx":28,"ny":28,"refTime":"2025-11-07T09:00:00:Z","depth":0,"parameterNumber":3,"parameterNumberName":"V-component_of_WINDS"},"data":[0,0,0,0,0,0,0,0,0,0,0,0,0,0,0,0,0,0,0,0,0,0,0,0,0,0,0,0,0,0,0,0,0,0,0,0,0,0,0,0,0,0,0,0,0,0,0,0,0,0,0,0,0,0,0,0,0,0,3.3594,3.3595,0,3.3671,3.3671,3.3672,3.3662,3.3661,3.366,3.3659,3.3738,3.3741,3.3745,0,0,0,0,0,0,0,0,0,0,0,0,0,3.3443,3.3446,3.3594,3.3595,3.3596,3.367,3.3672,3.3673,3.3663,3.3661,3.366,3.3658,3.3737,3.3741,3.3745,0,0,0,0,0,0,0,0,0,0,0,0,0,3.3513,3.3447,3.3594,3.36,3.3601,3.367,3.3672,3.3673,3.3663,3.3661,3.3659,3.3657,3.3736,3.3741,3.3745,3.3814,0,0,3.3761,3.3763,0,0,0,0,0,0,0,0,3.3509,3.3519,3.3598,3.36,3.3601,3.3655,3.3648,3.372,3.3663,3.3639,3.3659,3.3656,3.3712,3.3719,3.3737,3.3817,3.3821,3.3761,3.3764,3.3766,3.3767,0,0,0,0,0,0,0,3.3504,3.3515,3.3624,3.3599,3.3601,3.36,3.3608,3.3661,3.3685,3.3641,3.3641,3.365,3.3713,3.3733,3.3739,3.3822,3.3761,3.3765,3.3768,3.377,3.3968,3.397,0,0,0,0,0,0,3.3498,3.3511,3.3622,3.3627,3.355,3.3604,3.3613,3.364,3.3685,3.369,3.3652,3.3649,3.3725,3.3733,3.3742,3.3828,3.3766,3.3771,3.3774,3.3965,3.3968,3.397,0,0,0,0,0,0,3.3494,3.3507,3.3619,3.3569,3.3583,3.3609,3.3639,3.3642,3.3662,3.3693,3.3697,3.3667,3.3724,3.3735,3.3797,3.3831,3.3773,3.3777,3.3963,3.3966,3.3969,3.3999,0,0,0,0,0,0,3.349,3.3506,3.3531,3.357,3.3586,3.3671,3.3641,3.3645,3.3671,3.3668,3.3709,3.3713,3.3723,3.379,3.3802,3.3836,3.3781,3.396,3.3964,3.3968,3.3995,3.4003,3.401,0,0,0,0,0,3.3485,3.3536,3.3532,3.3546,3.3617,3.3673,3.3682,3.3693,3.3673,3.37,3.372,3.3712,3.3825,3.3796,3.381,3.3846,3.3958,3.3963,3.3968,3.3992,3.4002,3.401,0,0,0,0,0,0,3.35,3.3541,3.3537,3.3602,3.3634,3.3671,3.3704,3.3702,3.374,3.3736,3.3748,3.3757,3.3821,3.384,3.3807,3.3918,3.3889,3.3897,3.3903,3.3912,3.3919,3.3914,3.3785,0,0,0,0,0,3.3511,3.3552,3.3585,3.3639,3.3656,3.3678,3.3702,3.3708,3.3742,3.3755,3.378,3.3814,3.3858,3.3886,3.3927,3.3998,3.4009,3.4031,3.4038,3.4044,3.4051,3.4094,3.4105,3.3987,3.3987,3.3987,0,0,3.3533,3.3561,3.3586,3.3643,3.3669,3.3713,3.3689,3.3735,3.3769,3.3762,3.3823,3.3843,3.3882,3.395,3.3981,3.3968,3.4086,3.405,3.4055,3.4059,3.4101,3.4112,3.4122,3.3991,3.399,3.399,0,0,3.3598,3.3621,3.3671,3.3698,3.3738,3.3752,3.3765,3.3803,3.3816,3.3878,3.3875,3.3916,3.3989,3.4019,3.4043,3.4124,3.412,3.4137,3.4176,3.4218,3.4227,3.4236,3.4268,3.4279,3.4144,3.4144,3.4144,0,3.3621,3.3686,3.3696,3.3745,3.3772,3.3769,3.3821,3.3847,3.3898,3.3918,3.3902,3.3998,3.4024,3.4101,3.4121,3.414,3.4157,3.4133,3.4225,3.4234,3.4242,3.4272,3.4284,3.4146,3.4146,3.4146,3.4146,0,3.3715,3.3761,3.3796,3.3847,3.3878,3.3928,3.3948,3.3979,3.3983,3.4,3.4065,3.4097,3.4147,3.4165,3.4168,3.4244,3.4235,3.4222,3.4194,3.4255,3.4284,3.4296,3.4149,3.4149,3.4148,3.4148,0,0,3.3788,3.3847,3.386,3.3885,3.3931,3.3968,3.4019,3.4069,3.4096,3.4133,3.4178,3.4243,3.4233,3.4261,3.4268,3.4305,3.4372,3.4289,3.429,3.4305,3.4462,3.4473,3.4486,3.437,3.4372,3.4374,3.446,0,3.3859,3.3949,3.3962,3.4043,3.4088,3.4088,3.4134,3.4168,3.4187,3.4229,3.425,3.4297,3.4278,3.4296,3.4332,3.4356,3.4404,3.435,3.4414,3.4416,3.4406,3.45,3.4511,3.459,3.4471,3.4473,3.4474,0,3.3952,3.3994,3.4079,3.4123,3.4142,3.4183,3.4232,3.4271,3.4312,3.4323,3.4357,3.4361,3.4418,3.4387,3.4467,3.443,3.4457,3.4474,3.4477,3.4484,3.4449,3.4512,3.4615,3.4628,3.4491,3.449,3.4489,0,3.4001,3.4078,3.414,3.4161,3.4213,3.4242,3.4265,3.4304,3.4335,3.4378,3.4398,3.4447,3.4474,3.4513,3.4532,3.4507,3.4612,3.4582,3.4625,3.4625,3.4647,3.4646,3.4758,3.4662,3.4662,3.4662,3.4662,0,3.4079,3.4132,3.4163,3.4201,3.4262,3.4278,3.4339,3.4361,3.4396,3.4441,3.4444,3.4486,3.4507,3.4554,3.4568,3.4635,3.4646,3.4659,3.4662,3.4659,3.4658,3.4678,3.4674,3.4665,3.4664,3.4664,3.4663,0,3.4144,3.4166,3.4234,3.4279,3.4292,3.4335,3.4375,3.4413,3.4433,3.449,3.4504,3.4536,3.4591,3.4614,3.468,3.4691,3.4768,3.4766,3.4754,3.4755,3.4799,3.4795,3.4929,3.4949,3.4838,3.4839,3.484,0,3.4193,3.4234,3.4284,3.4315,3.4339,3.4388,3.442,3.4438,3.4472,3.4524,3.4557,3.4612,3.4658,3.4746,3.4776,3.4828,3.4829,3.4873,3.4837,3.4835,3.4833,3.4832,3.4838,3.488,3.4881,3.4882,3.4882,0,3.4279,3.4289,3.4334,3.4385,3.4424,3.4464,3.4504,3.4529,3.4555,3.4593,3.465,3.4685,3.4755,3.4811,3.4866,3.4892,3.4893,3.4894,3.4907,3.4905,3.4898,3.4905,3.4774,3.489,3.4889,3.4889,3.4888,3.4888,3.4339,3.4377,3.442,3.4472,3.4504,3.4543,3.4583,3.4609,3.4656,3.4715,3.4724,3.4786,3.483,3.4904,3.4932,3.4983,3.4972,3.499,3.4995,3.5,3.5004,3.4889,3.4992,3.4992,3.4992,3.4992,3.4992,0,3.4427,3.4456,3.4503,3.456,3.4603,3.46,3.4645,3.4681,3.4735,3.4776,3.4822,3.4889,3.4945,3.4981,3.5037,3.5071,3.5073,3.5085,3.5084,3.5091,3.5009,3.4993,3.5083,3.5083,3.5083,3.5083,3.5083,3.5083,3.4478,3.4545,3.4561,3.4644,3.4673,3.4733,3.476,3.4797,3.483,3.4906,3.4952,3.4975,3.5016,3.5076,3.5128,3.5137,3.5159,3.5173,3.5182,3.5105,3.5096,3.5087,3.5072,3.5177,3.5177,3.526,3.526,3.5261]}]]